Regional Weather Roundup
Issued by NWS

Home | Current Version | Previous Version | Graphics & Text | Print | Product List | Glossary On
Versions: 1 2 3 4 5 6 7 8 9 10 11 12 13 14 15 16 17 18 19 20 21 22 23 24 25 26 27 28 29 30 31 32 33 34 35 36 37 38 39 40 41 42 43 44 45 46 47 48 49 50
000
ASUS43 KOAX 231510
RWRNE

WEATHER ROUNDUP FOR NEBRASKA
NATIONAL WEATHER SERVICE OMAHA NE
1000 AM CDT FRI JUN 23 2017

NOTES: SATELLITE DATA IS BEING USED TO AUGMENT CLOUD COVER ABOVE
       12000 FEET.
       "FAIR" INDICATES FEW OR NO CLOUDS BELOW 12,000 FEET WITH NO
       SIGNIFICANT WEATHER AND/OR OBSTRUCTIONS TO VISIBILITY.

  * THESE STATIONS DO NOT REPORT WEATHER SUCH AS RAIN...SNOW OR FOG.

NEZ001>004-019>022-054>056-231600-
NEBRASKA PANHANDLE

CITY           SKY/WX    TMP DP  RH WIND       PRES   REMARKS
SCOTTSBLUFF    CLOUDY    60  38  43 NW16G22   30.26R
ALLIANCE       MOSUNNY   57  41  55 NW17G28   30.21S
CHADRON        SUNNY     59  39  47 NW15G23   30.22S
GORDON         FAIR      58  44  61 N15       30.19S
KIMBALL        CLOUDY    53  40  61 NW10      30.28F
SIDNEY         CLOUDY    56  41  57 NW12      30.26S
$$

NEZ057>060-069>072-079>082-231600-
SOUTHWEST NEBRASKA

CITY           SKY/WX    TMP DP  RH WIND       PRES   REMARKS
NORTH PLATTE   LGT RAIN  59  44  57 N13G21    30.16F
IMPERIAL       CLOUDY    60  44  55 N15       30.21S
LEXINGTON      MOSUNNY   63  44  50 N24G33    30.13F
MCCOOK         CLOUDY    65  45  48 N25G36    30.16R
OGALLALA       CLOUDY    64  42  45 N13G18    30.19F
$$

NEZ005>010-023>029-035>040-094-231600-
NORTH CENTRAL NEBRASKA

CITY           SKY/WX    TMP DP  RH WIND       PRES   REMARKS
VALENTINE      SUNNY     64  41  42 NW24G31   30.13F
AINSWORTH      PTSUNNY   60  47  62 NW18G26   30.13F
BROKEN BOW     CLOUDY    59  44  57 N17G31    30.11F
O`NEILL        DRIZZLE   55  52  87 NW10      30.10F
ORD            CLOUDY    59  44  57 N18G30    30.09F
THEDFORD       CLOUDY    60  47  62 NW18G25   30.16S
$$

NEZ041-046>049-061>064-073>077-083>087-231600-
SOUTH CENTRAL NEBRASKA

CITY           SKY/WX    TMP DP  RH WIND       PRES   REMARKS
GRAND ISLAND   LGT RAIN  63  47  55 N28G41    30.09R
AURORA         CLOUDY    63  45  52 N17G25    30.08R
HASTINGS       CLOUDY    64  43  46 N23G32    30.11R
HEBRON         CLOUDY    68  50  52 N13G18    30.04R
HOLDREGE       CLOUDY    62  41  46 N25G40    30.13R
KEARNEY *      CLOUDY    64  39  39 N25G36    30.11R
YORK           CLOUDY    64  45  48 N17G25    30.06R
$$

NEZ011>018-030>034-042>045-231600-
NORTHEAST NEBRASKA

CITY           SKY/WX    TMP DP  RH WIND       PRES   REMARKS
NORFOLK        LGT RAIN  59  48  67 NW21G31   30.03R
ALBION         LGT RAIN  60  47  61 NW24G33   30.06R
BLAIR          CLOUDY    65  49  54 NW18G28   29.99R
FREMONT        CLOUDY    65  47  51 NW15G22   30.02R
TEKAMAH        CLOUDY    65  48  54 NW14G24   29.98R
WAYNE          CLOUDY    62  49  63 NW23      30.01R
$$

NEZ050>053-065>068-078-088>093-231600-
SOUTHEAST NEBRASKA

CITY           SKY/WX    TMP DP  RH WIND       PRES   REMARKS
LINCOLN        CLOUDY    70  47  43 N20       30.01S
OMAHA EPPLEY   CLOUDY    68  48  48 N20G30    29.97R
BEATRICE       CLOUDY    67  54  62 N14G20    29.99R
FALLS CITY     CLOUDY    73  56  54 NW13G20   29.95R
NEBRASKA CITY  CLOUDY    65  55  70 N13       29.97R
PLATTSMOUTH    CLOUDY    66  51  57 NW13      30.00R
$$

NEZ044-045-051>053-067-231600-
OMAHA AREA

CITY           SKY/WX    TMP DP  RH WIND       PRES   REMARKS
OMAHA EPPLEY   CLOUDY    68  48  48 N20G30    29.97R
BLAIR          CLOUDY    65  49  54 NW18G28   29.99R
FREMONT        CLOUDY    65  47  51 NW15G22   30.02R
MILLARD        CLOUDY    69  48  47 NW14G21   30.00R
PLATTSMOUTH    CLOUDY    66  51  57 NW13      30.00R
WAHOO          PTSUNNY   67  45  44 N18G24    30.01R
$$




USA.gov is the U.S. government's official web portal to all federal, state and local government web resources and services.